Time,TemperatureF,DewpointF,PressureIn,WindDirection,WindDirectionDegrees,WindSpeedMPH,WindSpeedGustMPH,Humidity,HourlyPrecipIn,Conditions,Clouds,dailyrainin,SoftwareType,DateUTC
2013-09-21 00:01:00,63.5,60.0,30.08,South,180,2.8,8.0,89,0.00,,,0.00,Rainwise IP-100,2013-09-21 07:01:00,
2013-09-21 00:06:00,63.4,60.0,30.08,SSE,157,6.1,10.0,90,0.00,,,0.00,Rainwise IP-100,2013-09-21 07:06:00,
2013-09-21 00:11:00,63.4,60.0,30.08,SSE,157,3.7,10.0,90,0.00,,,0.00,Rainwise IP-100,2013-09-21 07:11:00,
2013-09-21 00:16:00,63.4,60.0,30.08,SSW,202,7.5,11.0,90,0.00,,,0.00,Rainwise IP-100,2013-09-21 07:16:00,
2013-09-21 00:21:00,63.4,60.0,30.09,SSE,157,3.3,12.0,90,0.00,,,0.00,Rainwise IP-100,2013-09-21 07:21:00,
2013-09-21 00:26:00,63.4,60.0,30.08,ESE,112,4.0,12.0,90,0.00,,,0.00,Rainwise IP-100,2013-09-21 07:26:00,
2013-09-21 00:31:00,63.3,60.0,30.08,WSW,247,8.2,14.0,90,0.00,,,0.00,Rainwise IP-100,2013-09-21 07:31:00,
2013-09-21 00:36:00,63.3,60.0,30.08,SW,225,9.8,15.0,90,0.00,,,0.00,Rainwise IP-100,2013-09-21 07:36:00,
2013-09-21 00:41:00,63.3,60.0,30.08,SSE,157,4.4,16.0,90,0.00,,,0.00,Rainwise IP-100,2013-09-21 07:41:00,
2013-09-21 00:46:00,63.3,60.0,30.08,SE,135,8.4,14.0,90,0.00,,,0.00,Rainwise IP-100,2013-09-21 07:46:00,
2013-09-21 00:51:00,63.3,60.0,30.08,SSE,157,9.1,17.0,89,0.00,,,0.00,Rainwise IP-100,2013-09-21 07:51:00,
2013-09-21 00:56:00,63.2,60.0,30.08,SSW,202,2.1,18.0,89,0.00,,,0.00,Rainwise IP-100,2013-09-21 07:56:00,
2013-09-21 01:01:00,63.1,60.0,30.08,South,180,5.4,14.0,89,0.00,,,0.00,Rainwise IP-100,2013-09-21 08:01:00,
2013-09-21 01:06:00,62.9,60.0,30.08,SSW,202,3.5,14.0,89,0.00,,,0.00,Rainwise IP-100,2013-09-21 08:06:00,
2013-09-21 01:11:00,62.8,59.0,30.08,SE,135,7.0,18.0,89,0.00,,,0.00,Rainwise IP-100,2013-09-21 08:11:00,
2013-09-21 01:16:00,62.6,59.0,30.08,SE,135,11.0,14.0,89,0.00,,,0.00,Rainwise IP-100,2013-09-21 08:16:00,
2013-09-21 01:21:00,62.5,59.0,30.08,WSW,247,6.5,12.0,89,0.00,,,0.00,Rainwise IP-100,2013-09-21 08:21:00,
2013-09-21 01:26:00,62.5,59.0,30.07,SSE,157,3.3,14.0,89,0.00,,,0.00,Rainwise IP-100,2013-09-21 08:26:00,
2013-09-21 01:31:00,62.5,59.0,30.07,SSW,202,7.2,14.0,89,0.00,,,0.00,Rainwise IP-100,2013-09-21 08:31:00,
2013-09-21 01:36:00,62.5,59.0,30.07,South,180,6.1,12.0,89,0.00,,,0.00,Rainwise IP-100,2013-09-21 08:36:00,
2013-09-21 01:41:00,62.5,59.0,30.07,SW,225,2.8,19.0,89,0.00,,,0.00,Rainwise IP-100,2013-09-21 08:41:00,
2013-09-21 01:46:00,62.3,59.0,30.07,WSW,247,2.6,15.0,90,0.00,,,0.00,Rainwise IP-100,2013-09-21 08:46:00,
2013-09-21 01:51:00,62.1,59.0,30.07,SW,225,6.8,18.0,90,0.00,,,0.00,Rainwise IP-100,2013-09-21 08:51:00,
2013-09-21 01:56:00,61.9,59.0,30.07,SSE,157,4.4,14.0,91,0.00,,,0.00,Rainwise IP-100,2013-09-21 08:56:00,
2013-09-21 02:01:00,61.9,60.0,30.07,SW,225,11.7,13.0,92,0.00,,,0.00,Rainwise IP-100,2013-09-21 09:01:00,
2013-09-21 02:06:00,61.9,60.0,30.07,SW,225,15.2,18.0,92,0.00,,,0.00,Rainwise IP-100,2013-09-21 09:06:00,
2013-09-21 02:11:00,62.1,60.0,30.07,SSE,157,7.5,15.0,92,0.00,,,0.00,Rainwise IP-100,2013-09-21 09:11:00,
2013-09-21 02:16:00,62.1,60.0,30.07,SW,225,4.7,15.0,92,0.00,,,0.00,Rainwise IP-100,2013-09-21 09:16:00,
2013-09-21 02:21:00,62.1,60.0,30.07,SW,225,1.9,16.0,92,0.00,,,0.00,Rainwise IP-100,2013-09-21 09:21:00,
2013-09-21 02:26:00,62.1,60.0,30.06,South,180,10.7,16.0,92,0.00,,,0.00,Rainwise IP-100,2013-09-21 09:26:00,
2013-09-21 02:31:00,62.0,60.0,30.06,SE,135,10.3,21.0,93,0.00,,,0.00,Rainwise IP-100,2013-09-21 09:31:00,
2013-09-21 02:36:00,62.0,60.0,30.06,SSE,157,8.2,13.0,93,0.00,,,0.00,Rainwise IP-100,2013-09-21 09:36:00,
2013-09-21 02:41:00,62.0,60.0,30.07,ESE,112,5.4,15.0,92,0.00,,,0.00,Rainwise IP-100,2013-09-21 09:41:00,
2013-09-21 02:46:00,62.1,60.0,30.07,West,270,2.1,13.0,92,0.00,,,0.00,Rainwise IP-100,2013-09-21 09:46:00,
2013-09-21 02:51:00,62.1,60.0,30.07,SE,135,8.2,12.0,92,0.00,,,0.00,Rainwise IP-100,2013-09-21 09:51:00,
2013-09-21 02:56:00,61.9,60.0,30.06,SSE,157,5.8,10.0,93,0.00,,,0.00,Rainwise IP-100,2013-09-21 09:56:00,
2013-09-21 03:01:00,61.6,60.0,30.07,East,90,1.9,11.0,94,0.00,,,0.00,Rainwise IP-100,2013-09-21 10:01:00,
2013-09-21 03:06:00,61.5,60.0,30.06,SSW,202,6.1,11.0,95,0.00,,,0.00,Rainwise IP-100,2013-09-21 10:06:00,
2013-09-21 03:11:00,61.5,60.0,30.06,SSW,202,2.6,8.0,96,0.00,,,0.00,Rainwise IP-100,2013-09-21 10:11:00,
2013-09-21 03:16:00,61.4,60.0,30.06,SSE,157,4.9,8.0,96,0.00,,,0.00,Rainwise IP-100,2013-09-21 10:16:00,
2013-09-21 03:21:00,61.4,60.0,30.06,SW,225,6.5,13.0,97,0.00,,,0.00,Rainwise IP-100,2013-09-21 10:21:00,
2013-09-21 03:26:00,61.5,60.0,30.06,SW,225,12.1,14.0,97,0.00,,,0.00,Rainwise IP-100,2013-09-21 10:26:00,
2013-09-21 03:31:00,61.5,60.0,30.07,SW,225,14.0,14.0,96,0.00,,,0.00,Rainwise IP-100,2013-09-21 10:31:00,
2013-09-21 03:36:00,61.6,60.0,30.06,South,180,4.2,16.0,96,0.00,,,0.00,Rainwise IP-100,2013-09-21 10:36:00,
2013-09-21 03:41:00,61.4,60.0,30.06,SE,135,5.4,15.0,96,0.00,,,0.00,Rainwise IP-100,2013-09-21 10:41:00,
2013-09-21 03:46:00,61.1,60.0,30.07,SW,225,13.3,18.0,96,0.00,,,0.00,Rainwise IP-100,2013-09-21 10:46:00,
2013-09-21 03:51:00,60.8,59.0,30.07,SSW,202,3.0,17.0,96,0.00,,,0.00,Rainwise IP-100,2013-09-21 10:51:00,
2013-09-21 03:56:00,60.6,59.0,30.07,ESE,112,4.2,17.0,97,0.00,,,0.00,Rainwise IP-100,2013-09-21 10:56:00,
2013-09-21 04:01:00,60.4,59.0,30.06,SE,135,6.1,13.0,97,0.00,,,0.00,Rainwise IP-100,2013-09-21 11:01:00,
2013-09-21 04:06:00,60.2,59.0,30.06,SSW,202,4.9,14.0,98,0.00,,,0.00,Rainwise IP-100,2013-09-21 11:06:00,
2013-09-21 04:11:00,60.0,59.0,30.06,SSW,202,4.4,14.0,98,0.00,,,0.00,Rainwise IP-100,2013-09-21 11:11:00,
2013-09-21 04:16:00,59.9,59.0,30.07,SW,225,7.7,12.0,99,0.00,,,0.00,Rainwise IP-100,2013-09-21 11:16:00,
2013-09-21 04:21:00,59.9,59.0,30.07,SSE,157,4.4,13.0,99,0.00,,,0.00,Rainwise IP-100,2013-09-21 11:21:00,
2013-09-21 04:26:00,59.8,59.0,30.06,SW,225,10.0,14.0,100,0.00,,,0.00,Rainwise IP-100,2013-09-21 11:26:00,
2013-09-21 04:31:00,59.7,59.0,30.07,WSW,247,7.5,13.0,100,0.00,,,0.00,Rainwise IP-100,2013-09-21 11:31:00,
2013-09-21 04:36:00,59.7,59.0,30.07,SSE,157,3.0,13.0,100,0.00,,,0.00,Rainwise IP-100,2013-09-21 11:36:00,
2013-09-21 04:41:00,59.6,59.0,30.06,SW,225,6.5,12.0,100,0.00,,,0.00,Rainwise IP-100,2013-09-21 11:41:00,
2013-09-21 04:46:00,59.6,59.0,30.06,SW,225,9.3,12.0,100,0.00,,,0.00,Rainwise IP-100,2013-09-21 11:46:00,
2013-09-21 04:51:00,59.5,59.0,30.07,SSW,202,3.0,12.0,100,0.00,,,0.00,Rainwise IP-100,2013-09-21 11:51:00,
2013-09-21 04:56:00,59.4,59.0,30.07,SSE,157,3.0,13.0,100,0.00,,,0.00,Rainwise IP-100,2013-09-21 11:56:00,
2013-09-21 05:01:00,59.2,59.0,30.07,South,180,6.8,13.0,100,0.00,,,0.00,Rainwise IP-100,2013-09-21 12:01:00,
2013-09-21 05:06:00,59.1,59.0,30.07,SSW,202,7.0,14.0,100,0.00,,,0.00,Rainwise IP-100,2013-09-21 12:06:00,
2013-09-21 05:11:00,59.0,59.0,30.06,SSW,202,4.0,15.0,100,0.00,,,0.00,Rainwise IP-100,2013-09-21 12:11:00,
2013-09-21 05:16:00,59.0,59.0,30.07,SW,225,7.9,12.0,100,0.00,,,0.00,Rainwise IP-100,2013-09-21 12:16:00,
2013-09-21 05:21:00,59.0,59.0,30.07,SW,225,10.7,13.0,100,0.00,,,0.00,Rainwise IP-100,2013-09-21 12:21:00,
2013-09-21 05:26:00,58.9,59.0,30.07,SSW,202,2.6,11.0,100,0.00,,,0.00,Rainwise IP-100,2013-09-21 12:26:00,
2013-09-21 05:31:00,58.9,59.0,30.07,SW,225,7.5,10.0,100,0.00,,,0.00,Rainwise IP-100,2013-09-21 12:31:00,
2013-09-21 05:36:00,58.8,59.0,30.06,SSW,202,4.7,10.0,100,0.00,,,0.00,Rainwise IP-100,2013-09-21 12:36:00,
2013-09-21 05:41:00,58.7,59.0,30.07,WSW,247,3.5,15.0,100,0.00,,,0.00,Rainwise IP-100,2013-09-21 12:41:00,
2013-09-21 05:46:00,58.7,59.0,30.07,SW,225,3.0,11.0,100,0.00,,,0.00,Rainwise IP-100,2013-09-21 12:46:00,
2013-09-21 05:51:00,58.8,59.0,30.06,WSW,247,5.4,11.0,100,0.00,,,0.00,Rainwise IP-100,2013-09-21 12:51:00,
2013-09-21 05:56:00,58.8,59.0,30.06,WSW,247,11.2,12.0,100,0.00,,,0.00,Rainwise IP-100,2013-09-21 12:56:00,
2013-09-21 06:01:00,58.8,59.0,30.06,WSW,247,4.2,13.0,100,0.00,,,0.00,Rainwise IP-100,2013-09-21 13:01:00,
2013-09-21 06:06:00,58.8,59.0,30.06,SW,225,7.7,9.0,100,0.00,,,0.00,Rainwise IP-100,2013-09-21 13:06:00,
2013-09-21 06:11:00,58.7,59.0,30.07,SSW,202,10.3,14.0,100,0.00,,,0.00,Rainwise IP-100,2013-09-21 13:11:00,
2013-09-21 06:16:00,58.6,59.0,30.07,SW,225,9.6,11.0,100,0.00,,,0.00,Rainwise IP-100,2013-09-21 13:16:00,
2013-09-21 06:21:00,58.5,59.0,30.07,SSE,157,1.4,14.0,100,0.00,,,0.00,Rainwise IP-100,2013-09-21 13:21:00,
2013-09-21 06:26:00,58.5,59.0,30.07,SW,225,7.5,12.0,100,0.00,,,0.00,Rainwise IP-100,2013-09-21 13:26:00,
2013-09-21 06:31:00,58.5,59.0,30.07,SW,225,6.1,10.0,100,0.00,,,0.00,Rainwise IP-100,2013-09-21 13:31:00,
2013-09-21 06:36:00,58.4,58.0,30.06,WSW,247,4.0,11.0,100,0.00,,,0.00,Rainwise IP-100,2013-09-21 13:36:00,
2013-09-21 06:41:00,58.4,58.0,30.07,SSW,202,4.2,9.0,100,0.00,,,0.00,Rainwise IP-100,2013-09-21 13:41:00,
2013-09-21 06:46:00,58.2,58.0,30.06,West,270,2.6,9.0,100,0.00,,,0.00,Rainwise IP-100,2013-09-21 13:46:00,
2013-09-21 06:51:00,58.2,58.0,30.07,WSW,247,5.6,11.0,100,0.00,,,0.00,Rainwise IP-100,2013-09-21 13:51:00,
2013-09-21 06:56:00,58.2,58.0,30.07,WSW,247,1.6,9.0,100,0.00,,,0.00,Rainwise IP-100,2013-09-21 13:56:00,
2013-09-21 07:01:00,58.2,58.0,30.07,West,270,4.9,9.0,100,0.00,,,0.00,Rainwise IP-100,2013-09-21 14:01:00,
2013-09-21 07:06:00,58.2,58.0,30.07,WSW,247,5.1,9.0,100,0.00,,,0.00,Rainwise IP-100,2013-09-21 14:06:00,
2013-09-21 07:11:00,58.2,58.0,30.07,SSW,202,5.8,9.0,100,0.00,,,0.00,Rainwise IP-100,2013-09-21 14:11:00,
2013-09-21 07:16:00,58.3,58.0,30.06,West,270,4.2,8.0,100,0.00,,,0.00,Rainwise IP-100,2013-09-21 14:16:00,
2013-09-21 07:21:00,58.4,58.0,30.06,SSW,202,8.6,9.0,100,0.00,,,0.00,Rainwise IP-100,2013-09-21 14:21:00,
2013-09-21 07:26:00,58.5,59.0,30.06,SW,225,4.4,10.0,100,0.00,,,0.00,Rainwise IP-100,2013-09-21 14:26:00,
2013-09-21 07:31:00,58.6,59.0,30.06,WSW,247,3.5,10.0,100,0.00,,,0.00,Rainwise IP-100,2013-09-21 14:31:00,
2013-09-21 07:36:00,58.8,59.0,30.06,SSW,202,5.1,11.0,99,0.00,,,0.00,Rainwise IP-100,2013-09-21 14:36:00,
2013-09-21 07:41:00,59.1,58.0,30.07,WSW,247,7.5,14.0,98,0.00,,,0.00,Rainwise IP-100,2013-09-21 14:41:00,
2013-09-21 07:46:00,59.5,59.0,30.06,SSE,157,4.4,10.0,98,0.00,,,0.00,Rainwise IP-100,2013-09-21 14:46:00,
2013-09-21 07:51:00,59.7,58.0,30.06,SSW,202,3.3,9.0,97,0.00,,,0.00,Rainwise IP-100,2013-09-21 14:51:00,
2013-09-21 07:56:00,59.9,59.0,30.06,East,90,1.2,10.0,97,0.00,,,0.00,Rainwise IP-100,2013-09-21 14:56:00,
2013-09-21 08:01:00,59.9,59.0,30.07,WSW,247,2.8,10.0,96,0.00,,,0.00,Rainwise IP-100,2013-09-21 15:01:00,
2013-09-21 08:06:00,60.3,59.0,30.06,SSW,202,1.2,13.0,96,0.00,,,0.00,Rainwise IP-100,2013-09-21 15:06:00,
2013-09-21 08:11:00,60.9,59.0,30.06,WSW,247,2.3,9.0,95,0.00,,,0.00,Rainwise IP-100,2013-09-21 15:11:00,
2013-09-21 08:16:00,61.5,60.0,30.07,WSW,247,10.7,12.0,94,0.00,,,0.00,Rainwise IP-100,2013-09-21 15:16:00,
2013-09-21 08:21:00,61.9,60.0,30.06,SW,225,11.0,15.0,93,0.00,,,0.00,Rainwise IP-100,2013-09-21 15:21:00,
2013-09-21 08:26:00,62.3,60.0,30.07,SSE,157,3.5,13.0,92,0.00,,,0.00,Rainwise IP-100,2013-09-21 15:26:00,
2013-09-21 08:31:00,62.6,60.0,30.06,SSW,202,4.7,13.0,91,0.00,,,0.00,Rainwise IP-100,2013-09-21 15:31:00,
2013-09-21 08:36:00,62.7,59.0,30.06,SW,225,13.1,13.1,90,0.00,,,0.00,Rainwise IP-100,2013-09-21 15:36:00,
2013-09-21 08:41:00,62.6,59.0,30.07,SSE,157,3.0,13.0,90,0.00,,,0.00,Rainwise IP-100,2013-09-21 15:41:00,
2013-09-21 08:46:00,62.4,60.0,30.07,SSE,157,4.0,14.0,91,0.00,,,0.00,Rainwise IP-100,2013-09-21 15:46:00,
2013-09-21 08:51:00,62.2,59.0,30.07,SSW,202,6.8,13.0,91,0.00,,,0.00,Rainwise IP-100,2013-09-21 15:51:00,
2013-09-21 08:56:00,62.1,59.0,30.07,SSW,202,2.6,11.0,91,0.00,,,0.00,Rainwise IP-100,2013-09-21 15:56:00,
2013-09-21 09:01:00,61.8,59.0,30.07,SSE,157,3.3,12.0,92,0.00,,,0.00,Rainwise IP-100,2013-09-21 16:01:00,
2013-09-21 09:06:00,61.6,59.0,30.07,South,180,2.8,10.0,93,0.00,,,0.00,Rainwise IP-100,2013-09-21 16:06:00,
2013-09-21 09:11:00,61.7,59.0,30.07,West,270,2.8,8.0,93,0.00,,,0.00,Rainwise IP-100,2013-09-21 16:11:00,
2013-09-21 09:16:00,61.8,59.0,30.07,ESE,112,4.2,7.0,93,0.00,,,0.00,Rainwise IP-100,2013-09-21 16:16:00,
2013-09-21 09:21:00,62.0,60.0,30.07,SE,135,4.2,12.0,92,0.00,,,0.00,Rainwise IP-100,2013-09-21 16:21:00,
2013-09-21 09:26:00,62.1,59.0,30.06,South,180,4.0,10.0,91,0.00,,,0.00,Rainwise IP-100,2013-09-21 16:26:00,
2013-09-21 09:31:00,62.3,59.0,30.07,WSW,247,6.1,12.0,90,0.00,,,0.00,Rainwise IP-100,2013-09-21 16:31:00,
2013-09-21 09:36:00,62.4,59.0,30.07,SSW,202,8.9,13.0,90,0.00,,,0.00,Rainwise IP-100,2013-09-21 16:36:00,
2013-09-21 09:41:00,62.1,59.0,30.07,ESE,112,0.0,15.0,90,0.06,,,0.01,Rainwise IP-100,2013-09-21 16:41:00,
2013-09-21 09:46:00,61.6,59.0,30.07,SSE,157,4.7,9.0,92,0.12,,,0.02,Rainwise IP-100,2013-09-21 16:46:00,
2013-09-21 09:51:00,61.1,59.0,30.07,SW,225,2.6,11.0,94,0.30,,,0.06,Rainwise IP-100,2013-09-21 16:51:00,
2013-09-21 09:56:00,60.9,59.0,30.07,WSW,247,7.9,14.0,95,0.30,,,0.07,Rainwise IP-100,2013-09-21 16:56:00,
2013-09-21 10:01:00,60.8,59.0,30.08,SSW,202,3.3,10.0,96,0.12,,,0.08,Rainwise IP-100,2013-09-21 17:01:00,
2013-09-21 10:06:00,60.7,59.0,30.08,SSW,202,9.3,11.0,96,0.06,,,0.08,Rainwise IP-100,2013-09-21 17:06:00,
2013-09-21 10:11:00,60.6,59.0,30.08,SW,225,5.1,11.0,97,0.06,,,0.09,Rainwise IP-100,2013-09-21 17:11:00,
2013-09-21 10:16:00,60.5,59.0,30.08,SW,225,6.5,14.0,97,0.12,,,0.10,Rainwise IP-100,2013-09-21 17:16:00,
2013-09-21 10:21:00,60.3,59.0,30.08,SSW,202,7.2,16.0,98,0.18,,,0.12,Rainwise IP-100,2013-09-21 17:21:00,
2013-09-21 10:26:00,60.0,59.0,30.08,SE,135,0.0,13.0,98,0.24,,,0.14,Rainwise IP-100,2013-09-21 17:26:00,
2013-09-21 10:31:00,59.7,59.0,30.08,SE,135,3.7,14.0,98,0.36,,,0.18,Rainwise IP-100,2013-09-21 17:31:00,
2013-09-21 10:36:00,59.4,59.0,30.09,SSW,202,10.3,13.0,98,0.60,,,0.24,Rainwise IP-100,2013-09-21 17:36:00,
2013-09-21 10:41:00,59.4,59.0,30.08,SSE,157,2.8,14.0,98,0.48,,,0.26,Rainwise IP-100,2013-09-21 17:41:00,
2013-09-21 10:46:00,59.5,59.0,30.09,SSW,202,2.1,11.0,98,0.36,,,0.30,Rainwise IP-100,2013-09-21 17:46:00,
2013-09-21 10:51:00,59.6,59.0,30.09,SSE,157,13.1,13.1,99,0.42,,,0.33,Rainwise IP-100,2013-09-21 17:51:00,
2013-09-21 10:56:00,59.5,59.0,30.09,SW,225,7.9,15.0,99,0.18,,,0.33,Rainwise IP-100,2013-09-21 17:56:00,
2013-09-21 11:01:00,59.3,59.0,30.09,WSW,247,7.2,15.0,99,0.06,,,0.34,Rainwise IP-100,2013-09-21 18:01:00,
2013-09-21 11:06:00,59.3,59.0,30.09,WSW,247,6.8,20.0,99,0.06,,,0.34,Rainwise IP-100,2013-09-21 18:06:00,
2013-09-21 11:11:00,59.1,59.0,30.09,SW,225,9.3,17.0,99,0.00,,,0.34,Rainwise IP-100,2013-09-21 18:11:00,
2013-09-21 11:16:00,58.8,59.0,30.09,SW,225,13.8,18.0,99,0.00,,,0.34,Rainwise IP-100,2013-09-21 18:16:00,
2013-09-21 11:21:00,58.8,59.0,30.08,SSE,157,7.2,18.0,99,0.00,,,0.34,Rainwise IP-100,2013-09-21 18:21:00,
2013-09-21 11:26:00,59.0,59.0,30.09,SE,135,6.5,18.0,99,0.00,,,0.34,Rainwise IP-100,2013-09-21 18:26:00,
2013-09-21 11:31:00,59.2,59.0,30.08,North,360,1.4,17.0,99,0.06,,,0.35,Rainwise IP-100,2013-09-21 18:31:00,
2013-09-21 11:36:00,59.4,59.0,30.09,SSW,202,6.8,14.0,99,0.06,,,0.35,Rainwise IP-100,2013-09-21 18:36:00,
2013-09-21 11:41:00,59.3,59.0,30.09,South,180,4.0,15.0,99,0.00,,,0.35,Rainwise IP-100,2013-09-21 18:41:00,
2013-09-21 11:46:00,59.3,59.0,30.09,ESE,112,5.6,17.0,99,0.00,,,0.35,Rainwise IP-100,2013-09-21 18:46:00,
2013-09-21 11:51:00,59.3,59.0,30.10,WSW,247,10.3,17.0,99,0.48,,,0.43,Rainwise IP-100,2013-09-21 18:51:00,
2013-09-21 11:56:00,59.1,59.0,30.10,SE,135,5.8,17.0,99,0.78,,,0.48,Rainwise IP-100,2013-09-21 18:56:00,
2013-09-21 12:01:00,58.9,59.0,30.10,WSW,247,7.2,19.0,99,0.54,,,0.52,Rainwise IP-100,2013-09-21 19:01:00,
2013-09-21 12:06:00,58.8,59.0,30.10,SE,135,1.9,12.0,99,0.42,,,0.55,Rainwise IP-100,2013-09-21 19:06:00,
2013-09-21 12:11:00,58.8,59.0,30.09,SSE,157,7.7,17.0,100,0.30,,,0.57,Rainwise IP-100,2013-09-21 19:11:00,
2013-09-21 12:16:00,58.9,59.0,30.09,WSW,247,3.0,13.0,100,0.18,,,0.58,Rainwise IP-100,2013-09-21 19:16:00,
2013-09-21 12:21:00,59.0,59.0,30.09,SW,225,6.3,11.0,100,0.12,,,0.59,Rainwise IP-100,2013-09-21 19:21:00,
2013-09-21 12:26:00,59.1,59.0,30.09,SSW,202,7.9,12.0,100,0.06,,,0.59,Rainwise IP-100,2013-09-21 19:26:00,
2013-09-21 12:31:00,59.0,59.0,30.09,SW,225,11.4,13.0,100,0.00,,,0.59,Rainwise IP-100,2013-09-21 19:31:00,
2013-09-21 12:36:00,58.9,59.0,30.09,SW,225,10.7,17.0,100,0.00,,,0.59,Rainwise IP-100,2013-09-21 19:36:00,
2013-09-21 12:41:00,59.0,59.0,30.10,SW,225,9.1,11.0,100,0.00,,,0.59,Rainwise IP-100,2013-09-21 19:41:00,
2013-09-21 12:46:00,59.3,59.0,30.09,SSW,202,1.4,13.0,100,0.00,,,0.59,Rainwise IP-100,2013-09-21 19:46:00,
2013-09-21 12:51:00,59.6,59.0,30.10,SSW,202,9.1,9.1,99,0.00,,,0.59,Rainwise IP-100,2013-09-21 19:51:00,
2013-09-21 12:56:00,59.8,59.0,30.09,SSW,202,5.1,11.0,99,0.00,,,0.59,Rainwise IP-100,2013-09-21 19:56:00,
2013-09-21 13:01:00,60.0,59.0,30.10,SW,225,1.2,14.0,98,0.00,,,0.59,Rainwise IP-100,2013-09-21 20:01:00,
2013-09-21 13:06:00,60.4,59.0,30.10,SSW,202,7.2,13.0,96,0.00,,,0.59,Rainwise IP-100,2013-09-21 20:06:00,
2013-09-21 13:11:00,61.1,60.0,30.09,SSE,157,1.6,10.0,96,0.00,,,0.59,Rainwise IP-100,2013-09-21 20:11:00,
2013-09-21 13:16:00,61.4,60.0,30.09,SW,225,5.6,11.0,95,0.00,,,0.59,Rainwise IP-100,2013-09-21 20:16:00,
2013-09-21 13:21:00,61.2,59.0,30.09,WSW,247,4.2,17.0,94,0.00,,,0.59,Rainwise IP-100,2013-09-21 20:21:00,
2013-09-21 13:26:00,61.0,59.0,30.09,SW,225,7.7,14.0,94,0.00,,,0.59,Rainwise IP-100,2013-09-21 20:26:00,
2013-09-21 13:31:00,61.2,59.0,30.09,WSW,247,3.7,13.0,94,0.00,,,0.59,Rainwise IP-100,2013-09-21 20:31:00,
2013-09-21 13:36:00,61.4,60.0,30.09,SSW,202,3.5,10.0,94,0.00,,,0.59,Rainwise IP-100,2013-09-21 20:36:00,
2013-09-21 13:41:00,61.7,60.0,30.09,SSW,202,7.2,18.0,94,0.00,,,0.59,Rainwise IP-100,2013-09-21 20:41:00,
2013-09-21 13:46:00,62.0,60.0,30.09,West,270,3.5,12.0,94,0.00,,,0.59,Rainwise IP-100,2013-09-21 20:46:00,
2013-09-21 13:51:00,62.4,60.0,30.09,SSW,202,6.5,14.0,93,0.00,,,0.59,Rainwise IP-100,2013-09-21 20:51:00,
2013-09-21 13:56:00,62.3,60.0,30.08,SW,225,3.7,15.0,93,0.00,,,0.59,Rainwise IP-100,2013-09-21 20:56:00,
2013-09-21 14:01:00,61.8,59.0,30.09,SW,225,7.9,14.0,93,0.00,,,0.59,Rainwise IP-100,2013-09-21 21:01:00,
2013-09-21 14:06:00,61.4,60.0,30.09,SW,225,4.7,11.0,94,0.00,,,0.59,Rainwise IP-100,2013-09-21 21:06:00,
2013-09-21 14:11:00,61.1,59.0,30.08,SSE,157,4.2,11.0,95,0.00,,,0.59,Rainwise IP-100,2013-09-21 21:11:00,
2013-09-21 14:16:00,61.2,60.0,30.08,SSW,202,3.7,14.0,96,0.00,,,0.59,Rainwise IP-100,2013-09-21 21:16:00,
2013-09-21 14:21:00,61.7,60.0,30.08,SSW,202,7.5,11.0,95,0.00,,,0.59,Rainwise IP-100,2013-09-21 21:21:00,
2013-09-21 14:26:00,61.9,60.0,30.08,SSW,202,6.8,12.0,94,0.00,,,0.59,Rainwise IP-100,2013-09-21 21:26:00,
2013-09-21 14:31:00,62.0,60.0,30.08,SW,225,10.7,16.0,93,0.00,,,0.59,Rainwise IP-100,2013-09-21 21:31:00,
2013-09-21 14:36:00,62.7,60.0,30.08,NW,315,2.8,13.0,92,0.00,,,0.59,Rainwise IP-100,2013-09-21 21:36:00,
2013-09-21 14:41:00,63.3,60.0,30.08,NW,315,0.0,8.0,90,0.00,,,0.59,Rainwise IP-100,2013-09-21 21:41:00,
2013-09-21 14:46:00,63.8,60.0,30.08,SSW,202,5.6,11.0,89,0.00,,,0.59,Rainwise IP-100,2013-09-21 21:46:00,
2013-09-21 14:51:00,64.0,60.0,30.08,WSW,247,2.1,10.0,88,0.00,,,0.59,Rainwise IP-100,2013-09-21 21:51:00,
2013-09-21 14:56:00,64.1,60.0,30.08,SSW,202,5.8,7.0,87,0.00,,,0.59,Rainwise IP-100,2013-09-21 21:56:00,
2013-09-21 15:01:00,64.2,60.0,30.08,SW,225,4.2,9.0,86,0.00,,,0.59,Rainwise IP-100,2013-09-21 22:01:00,
2013-09-21 15:06:00,63.6,59.0,30.08,SSE,157,1.9,13.0,86,0.00,,,0.59,Rainwise IP-100,2013-09-21 22:06:00,
2013-09-21 15:11:00,63.0,59.0,30.08,SW,225,6.1,11.0,87,0.00,,,0.59,Rainwise IP-100,2013-09-21 22:11:00,
2013-09-21 15:16:00,62.8,59.0,30.08,NNW,337,3.5,13.0,88,0.00,,,0.59,Rainwise IP-100,2013-09-21 22:16:00,
2013-09-21 15:21:00,63.2,59.0,30.08,SW,225,9.8,10.0,87,0.00,,,0.59,Rainwise IP-100,2013-09-21 22:21:00,
2013-09-21 15:26:00,63.5,59.0,30.08,West,270,2.1,11.0,86,0.00,,,0.59,Rainwise IP-100,2013-09-21 22:26:00,
2013-09-21 15:31:00,63.3,59.0,30.08,WSW,247,2.1,12.0,86,0.00,,,0.59,Rainwise IP-100,2013-09-21 22:31:00,
2013-09-21 15:36:00,63.4,59.0,30.08,SW,225,13.3,14.0,86,0.00,,,0.59,Rainwise IP-100,2013-09-21 22:36:00,
2013-09-21 15:41:00,63.4,59.0,30.08,WSW,247,7.2,14.0,86,0.00,,,0.59,Rainwise IP-100,2013-09-21 22:41:00,
2013-09-21 15:46:00,63.2,59.0,30.08,SSW,202,4.9,13.0,86,0.00,,,0.59,Rainwise IP-100,2013-09-21 22:46:00,
2013-09-21 15:51:00,63.2,59.0,30.08,SSW,202,1.9,14.0,86,0.00,,,0.59,Rainwise IP-100,2013-09-21 22:51:00,
2013-09-21 15:56:00,63.4,59.0,30.08,WSW,247,1.4,12.0,86,0.00,,,0.59,Rainwise IP-100,2013-09-21 22:56:00,
2013-09-21 16:01:00,63.2,59.0,30.08,SSW,202,12.1,14.0,86,0.00,,,0.59,Rainwise IP-100,2013-09-21 23:01:00,
2013-09-21 16:06:00,62.8,59.0,30.09,North,360,1.4,13.0,87,0.00,,,0.59,Rainwise IP-100,2013-09-21 23:06:00,
2013-09-21 16:11:00,62.8,59.0,30.08,NW,315,1.2,14.0,87,0.00,,,0.59,Rainwise IP-100,2013-09-21 23:11:00,
2013-09-21 16:16:00,63.4,59.0,30.08,WSW,247,4.9,13.0,86,0.00,,,0.59,Rainwise IP-100,2013-09-21 23:16:00,
2013-09-21 16:21:00,63.7,59.0,30.08,South,180,0.0,14.0,85,0.00,,,0.59,Rainwise IP-100,2013-09-21 23:21:00,
2013-09-21 16:26:00,63.6,59.0,30.08,ENE,67,1.2,16.0,85,0.00,,,0.59,Rainwise IP-100,2013-09-21 23:26:00,
2013-09-21 16:31:00,63.4,59.0,30.09,WNW,292,4.9,16.0,85,0.00,,,0.59,Rainwise IP-100,2013-09-21 23:31:00,
2013-09-21 16:36:00,63.2,58.0,30.08,ESE,112,1.2,14.0,85,0.00,,,0.59,Rainwise IP-100,2013-09-21 23:36:00,
2013-09-21 16:41:00,63.4,59.0,30.09,WSW,247,2.6,12.0,85,0.00,,,0.59,Rainwise IP-100,2013-09-21 23:41:00,
2013-09-21 16:46:00,63.3,58.0,30.09,SE,135,3.0,12.0,85,0.00,,,0.59,Rainwise IP-100,2013-09-21 23:46:00,
2013-09-21 16:51:00,63.5,59.0,30.09,SW,225,8.9,13.0,85,0.00,,,0.59,Rainwise IP-100,2013-09-21 23:51:00,
2013-09-21 16:53:00,63.5,59.0,30.09,SSW,202,1.6,11.0,85,0.00,,,0.59,Rainwise IP-100,2013-09-21 23:53:00,
2013-09-21 16:58:00,63.7,59.0,30.09,WNW,292,2.1,8.0,85,0.00,,,0.59,Rainwise IP-100,2013-09-21 23:58:00,
2013-09-21 17:03:00,63.5,59.0,30.08,WSW,247,6.3,9.0,85,0.00,,,0.59,Rainwise IP-100,2013-09-22 00:03:00,
2013-09-21 17:08:00,63.4,59.0,30.09,WSW,247,2.8,9.0,85,0.00,,,0.59,Rainwise IP-100,2013-09-22 00:08:00,
2013-09-21 17:13:00,63.3,58.0,30.09,WSW,247,6.5,11.0,85,0.00,,,0.59,Rainwise IP-100,2013-09-22 00:13:00,
2013-09-21 17:18:00,62.9,59.0,30.08,SSW,202,5.6,10.0,86,0.00,,,0.59,Rainwise IP-100,2013-09-22 00:18:00,
2013-09-21 17:23:00,62.8,58.0,30.08,NNE,22,0.0,8.0,86,0.00,,,0.59,Rainwise IP-100,2013-09-22 00:23:00,
2013-09-21 17:28:00,63.1,59.0,30.08,SW,225,1.9,8.0,86,0.00,,,0.59,Rainwise IP-100,2013-09-22 00:28:00,
2013-09-21 17:33:00,63.1,58.0,30.09,WSW,247,4.0,5.0,85,0.00,,,0.59,Rainwise IP-100,2013-09-22 00:33:00,
2013-09-21 17:38:00,63.0,58.0,30.09,WNW,292,7.7,8.0,85,0.00,,,0.59,Rainwise IP-100,2013-09-22 00:38:00,
2013-09-21 17:43:00,62.5,57.0,30.08,West,270,5.6,12.0,85,0.00,,,0.59,Rainwise IP-100,2013-09-22 00:43:00,
2013-09-21 17:48:00,62.1,57.0,30.09,WNW,292,7.9,10.0,86,0.00,,,0.59,Rainwise IP-100,2013-09-22 00:48:00,
2013-09-21 17:53:00,61.8,57.0,30.09,WNW,292,4.2,13.0,86,0.00,,,0.59,Rainwise IP-100,2013-09-22 00:53:00,
2013-09-21 17:58:00,61.5,57.0,30.08,West,270,3.3,12.0,86,0.00,,,0.59,Rainwise IP-100,2013-09-22 00:58:00,
2013-09-21 18:03:00,61.4,57.0,30.09,WSW,247,2.8,9.0,87,0.00,,,0.59,Rainwise IP-100,2013-09-22 01:03:00,
2013-09-21 18:08:00,61.2,57.0,30.09,WNW,292,8.2,12.0,87,0.00,,,0.59,Rainwise IP-100,2013-09-22 01:08:00,
2013-09-21 18:13:00,60.9,57.0,30.09,NW,315,3.3,13.0,87,0.00,,,0.59,Rainwise IP-100,2013-09-22 01:13:00,
2013-09-21 18:18:00,60.9,57.0,30.09,WNW,292,6.3,10.0,88,0.00,,,0.59,Rainwise IP-100,2013-09-22 01:18:00,
2013-09-21 18:23:00,60.9,57.0,30.08,WNW,292,3.7,11.0,88,0.00,,,0.59,Rainwise IP-100,2013-09-22 01:23:00,
2013-09-21 18:28:00,60.8,57.0,30.08,WSW,247,2.6,11.0,88,0.00,,,0.59,Rainwise IP-100,2013-09-22 01:28:00,
2013-09-21 18:33:00,60.8,57.0,30.09,WNW,292,3.7,11.0,88,0.00,,,0.59,Rainwise IP-100,2013-09-22 01:33:00,
2013-09-21 18:38:00,60.7,57.0,30.09,West,270,6.8,7.0,88,0.00,,,0.59,Rainwise IP-100,2013-09-22 01:38:00,
2013-09-21 18:43:00,60.4,57.0,30.09,WNW,292,4.4,12.0,88,0.00,,,0.59,Rainwise IP-100,2013-09-22 01:43:00,
2013-09-21 18:48:00,60.0,56.0,30.09,SSW,202,0.0,10.0,89,0.00,,,0.59,Rainwise IP-100,2013-09-22 01:48:00,
2013-09-21 18:53:00,59.7,56.0,30.10,WNW,292,5.8,9.0,89,0.00,,,0.59,Rainwise IP-100,2013-09-22 01:53:00,
2013-09-21 18:58:00,59.5,56.0,30.10,West,270,4.2,8.0,90,0.00,,,0.59,Rainwise IP-100,2013-09-22 01:58:00,
2013-09-21 19:03:00,59.0,56.0,30.09,WNW,292,3.3,11.0,91,0.00,,,0.59,Rainwise IP-100,2013-09-22 02:03:00,
2013-09-21 19:08:00,58.7,56.0,30.10,WSW,247,2.1,10.0,92,0.00,,,0.59,Rainwise IP-100,2013-09-22 02:08:00,
2013-09-21 19:13:00,58.5,56.0,30.10,WNW,292,4.4,11.0,92,0.00,,,0.59,Rainwise IP-100,2013-09-22 02:13:00,
2013-09-21 19:18:00,58.3,56.0,30.10,WNW,292,5.1,6.0,93,0.00,,,0.59,Rainwise IP-100,2013-09-22 02:18:00,
2013-09-21 19:23:00,58.2,56.0,30.10,SSW,202,5.4,6.0,94,0.00,,,0.59,Rainwise IP-100,2013-09-22 02:23:00,
2013-09-21 19:28:00,58.0,56.0,30.11,NNE,22,1.2,7.0,94,0.00,,,0.59,Rainwise IP-100,2013-09-22 02:28:00,
2013-09-21 19:33:00,57.8,56.0,30.11,SW,225,1.2,7.0,94,0.00,,,0.59,Rainwise IP-100,2013-09-22 02:33:00,
2013-09-21 19:38:00,57.5,56.0,30.10,WNW,292,2.6,7.0,95,0.00,,,0.59,Rainwise IP-100,2013-09-22 02:38:00,
2013-09-21 19:43:00,57.5,56.0,30.11,West,270,3.0,8.0,95,0.00,,,0.59,Rainwise IP-100,2013-09-22 02:43:00,
2013-09-21 19:48:00,57.5,56.0,30.11,West,270,5.4,7.0,95,0.00,,,0.59,Rainwise IP-100,2013-09-22 02:48:00,
2013-09-21 19:53:00,57.5,56.0,30.11,WNW,292,2.8,9.0,95,0.00,,,0.59,Rainwise IP-100,2013-09-22 02:53:00,
2013-09-21 19:58:00,57.5,56.0,30.11,West,270,3.5,7.0,95,0.00,,,0.59,Rainwise IP-100,2013-09-22 02:58:00,
2013-09-21 20:03:00,57.6,56.0,30.11,West,270,5.1,8.0,95,0.00,,,0.59,Rainwise IP-100,2013-09-22 03:03:00,
2013-09-21 20:08:00,57.7,56.0,30.11,WSW,247,4.7,8.0,95,0.00,,,0.59,Rainwise IP-100,2013-09-22 03:08:00,
2013-09-21 20:13:00,57.7,56.0,30.11,West,270,2.8,6.0,95,0.00,,,0.59,Rainwise IP-100,2013-09-22 03:13:00,
2013-09-21 20:18:00,57.6,56.0,30.11,West,270,1.6,7.0,95,0.00,,,0.59,Rainwise IP-100,2013-09-22 03:18:00,
2013-09-21 20:23:00,57.5,56.0,30.12,WNW,292,6.1,8.0,95,0.00,,,0.59,Rainwise IP-100,2013-09-22 03:23:00,
2013-09-21 20:28:00,57.5,56.0,30.12,WNW,292,3.0,6.0,95,0.00,,,0.59,Rainwise IP-100,2013-09-22 03:28:00,
2013-09-21 20:33:00,57.4,56.0,30.13,WNW,292,2.6,5.0,95,0.00,,,0.59,Rainwise IP-100,2013-09-22 03:33:00,
2013-09-21 20:38:00,57.4,56.0,30.12,SW,225,3.3,5.0,96,0.00,,,0.59,Rainwise IP-100,2013-09-22 03:38:00,
2013-09-21 20:43:00,57.4,56.0,30.13,WSW,247,3.5,7.0,96,0.00,,,0.59,Rainwise IP-100,2013-09-22 03:43:00,
2013-09-21 20:48:00,57.4,56.0,30.13,WNW,292,0.0,6.0,96,0.00,,,0.59,Rainwise IP-100,2013-09-22 03:48:00,
2013-09-21 20:53:00,57.3,56.0,30.13,WNW,292,1.4,4.0,96,0.00,,,0.59,Rainwise IP-100,2013-09-22 03:53:00,
2013-09-21 20:58:00,57.3,56.0,30.13,WNW,292,5.1,6.0,96,0.00,,,0.59,Rainwise IP-100,2013-09-22 03:58:00,
2013-09-21 21:01:00,57.3,56.0,30.13,West,270,2.1,5.0,96,0.00,,,0.59,Rainwise IP-100,2013-09-22 04:01:00,
2013-09-21 21:06:00,57.3,56.0,30.13,WSW,247,3.7,5.0,96,0.00,,,0.59,Rainwise IP-100,2013-09-22 04:06:00,
2013-09-21 21:11:00,57.2,56.0,30.13,WNW,292,1.4,6.0,96,0.00,,,0.59,Rainwise IP-100,2013-09-22 04:11:00,
2013-09-21 21:16:00,57.2,56.0,30.14,West,270,7.9,7.9,97,0.00,,,0.59,Rainwise IP-100,2013-09-22 04:16:00,
2013-09-21 21:21:00,57.1,56.0,30.14,WNW,292,2.8,9.0,97,0.00,,,0.59,Rainwise IP-100,2013-09-22 04:21:00,
2013-09-21 21:26:00,57.1,56.0,30.14,WNW,292,1.2,8.0,97,0.00,,,0.59,Rainwise IP-100,2013-09-22 04:26:00,
2013-09-21 21:31:00,57.0,56.0,30.14,SSE,157,1.9,8.0,97,0.00,,,0.59,Rainwise IP-100,2013-09-22 04:31:00,
2013-09-21 21:36:00,56.9,56.0,30.14,NW,315,1.9,10.0,97,0.00,,,0.59,Rainwise IP-100,2013-09-22 04:36:00,
2013-09-21 21:41:00,56.8,56.0,30.13,West,270,4.7,7.0,97,0.00,,,0.59,Rainwise IP-100,2013-09-22 04:41:00,
2013-09-21 21:46:00,56.8,56.0,30.13,WSW,247,3.3,7.0,97,0.00,,,0.59,Rainwise IP-100,2013-09-22 04:46:00,
2013-09-21 21:51:00,56.8,56.0,30.13,WSW,247,0.0,7.0,97,0.00,,,0.59,Rainwise IP-100,2013-09-22 04:51:00,
2013-09-21 21:56:00,56.7,56.0,30.14,NNW,337,1.9,8.0,97,0.00,,,0.59,Rainwise IP-100,2013-09-22 04:56:00,
2013-09-21 22:01:00,56.5,56.0,30.13,SW,225,2.1,6.0,98,0.00,,,0.59,Rainwise IP-100,2013-09-22 05:01:00,
2013-09-21 22:06:00,56.4,56.0,30.14,SSW,202,1.4,7.0,98,0.00,,,0.59,Rainwise IP-100,2013-09-22 05:06:00,
2013-09-21 22:11:00,56.4,56.0,30.14,WSW,247,0.0,5.0,98,0.00,,,0.59,Rainwise IP-100,2013-09-22 05:11:00,
2013-09-21 22:16:00,56.3,55.0,30.13,WNW,292,4.2,4.2,98,0.00,,,0.59,Rainwise IP-100,2013-09-22 05:16:00,
2013-09-21 22:21:00,56.4,56.0,30.14,WNW,292,3.0,7.0,98,0.00,,,0.59,Rainwise IP-100,2013-09-22 05:21:00,
2013-09-21 22:26:00,56.4,56.0,30.14,SW,225,3.0,4.0,98,0.00,,,0.59,Rainwise IP-100,2013-09-22 05:26:00,
2013-09-21 22:31:00,56.4,56.0,30.13,WSW,247,1.9,5.0,99,0.00,,,0.59,Rainwise IP-100,2013-09-22 05:31:00,
2013-09-21 22:36:00,56.4,56.0,30.13,WNW,292,4.9,7.0,99,0.00,,,0.59,Rainwise IP-100,2013-09-22 05:36:00,
2013-09-21 22:41:00,56.4,56.0,30.14,WNW,292,3.3,7.0,99,0.00,,,0.59,Rainwise IP-100,2013-09-22 05:41:00,
2013-09-21 22:46:00,56.4,56.0,30.14,WSW,247,0.0,5.0,99,0.00,,,0.59,Rainwise IP-100,2013-09-22 05:46:00,
2013-09-21 22:51:00,56.4,56.0,30.15,West,270,2.1,7.0,99,0.00,,,0.59,Rainwise IP-100,2013-09-22 05:51:00,
2013-09-21 22:56:00,56.4,56.0,30.15,WSW,247,4.0,8.0,99,0.00,,,0.59,Rainwise IP-100,2013-09-22 05:56:00,
2013-09-21 23:01:00,56.4,56.0,30.15,WNW,292,0.0,7.0,99,0.00,,,0.59,Rainwise IP-100,2013-09-22 06:01:00,
2013-09-21 23:06:00,56.3,56.0,30.15,West,270,0.0,6.0,99,0.00,,,0.59,Rainwise IP-100,2013-09-22 06:06:00,
2013-09-21 23:11:00,56.3,56.0,30.15,SSW,202,1.2,6.0,99,0.00,,,0.59,Rainwise IP-100,2013-09-22 06:11:00,
2013-09-21 23:16:00,56.3,56.0,30.15,WNW,292,3.3,5.0,99,0.00,,,0.59,Rainwise IP-100,2013-09-22 06:16:00,
2013-09-21 23:21:00,56.2,56.0,30.15,WSW,247,2.1,7.0,99,0.00,,,0.59,Rainwise IP-100,2013-09-22 06:21:00,
2013-09-21 23:26:00,56.1,56.0,30.15,WNW,292,6.8,6.8,99,0.00,,,0.59,Rainwise IP-100,2013-09-22 06:26:00,
2013-09-21 23:31:00,56.1,56.0,30.15,WSW,247,3.3,6.0,99,0.00,,,0.59,Rainwise IP-100,2013-09-22 06:31:00,
2013-09-21 23:36:00,56.1,56.0,30.15,WNW,292,6.8,7.0,100,0.00,,,0.59,Rainwise IP-100,2013-09-22 06:36:00,
2013-09-21 23:41:00,56.1,56.0,30.15,WNW,292,3.5,7.0,100,0.00,,,0.59,Rainwise IP-100,2013-09-22 06:41:00,
2013-09-21 23:46:00,56.0,56.0,30.16,WNW,292,3.5,6.0,100,0.00,,,0.59,Rainwise IP-100,2013-09-22 06:46:00,
2013-09-21 23:51:00,56.0,56.0,30.15,West,270,1.6,6.0,100,0.00,,,0.59,Rainwise IP-100,2013-09-22 06:51:00,
2013-09-21 23:56:00,56.0,56.0,30.15,WSW,247,1.4,3.0,100,0.00,,,0.59,Rainwise IP-100,2013-09-22 06:56:00,